Weslaco, TX

10:40 AM CST on January 20, 2017 (GMT -0600)
Weslaco

Weather History for KT65 - July, 2013

Change the Weather History Date:

Monday, July 15, 2013

  Actual Average (KMFE) Record (KMFE)
Temperature  
Mean Temperature 87 °F -  
Max Temperature 99 °F 96 °F 105 °F (2000)
Min Temperature 77 °F 74 °F 68 °F (1975)
Cooling Degree Days 22    
Growing Degree Days 37 (Base 50)    
Moisture  
Dew Point 69 °F    
Average Humidity 60    
Maximum Humidity 83    
Minimum Humidity 30    
Precipitation  
Precipitation 0.00 in - - ()
Sea Level Pressure  
Sea Level Pressure 29.87 in    
Wind  
Wind Speed 10 mph (SE)    
Max Wind Speed 18 mph    
Max Gust Speed 28 mph    
Visibility 10 miles    
Events      
Averages and records for this station are not official NWS values.
T = Trace of Precipitation, MM = Missing Value Source: NWS Daily Summary

Daily Weather History Graph

Daily Weather History Graph

Search for Another Location

Airport or City:

Trip Planner

Search our weather history database for the weather conditions in past years. The results will help you decide how hot, cold, wet, or windy it might be!

Date:

Astronomy

Jul. 15, 2013 Rise Set
Actual Time 6:49 AM CDT 8:26 PM CDT
Civil Twilight 6:23 AM CDT 8:51 PM CDT
Nautical Twilight 5:52 AM CDT 9:22 PM CDT
Astronomical Twilight 5:20 AM CDT 9:54 PM CDT
Moon 1:22 PM CDT (7/15) 12:23 AM CDT (7/15)
Length of Visible Light 14h 28m
Length of Day
13h 37m
Waxing Crescent, 45% of the Moon is Illuminated
Jul 15
Waxing Crescent
Jul 15
First Quarter
Jul 22
Full
Jul 29
Last Quarter
Aug 6
New

Hourly Weather History & Observations

Time (CDT) Temp. Heat Index Dew Point Humidity Pressure Visibility Wind Dir Wind Speed Gust Speed Precip Events Conditions
12:15 AM 81.5 °F 86.3 °F 72.5 °F 74% 29.88 in 10.0 mi SSE 12.7 mph 16.1 mph N/A   Clear
12:35 AM 81.1 °F 85.8 °F 72.5 °F 75% 29.88 in 10.0 mi SE 9.2 mph - N/A   Clear
12:55 AM 80.8 °F 85.2 °F 72.5 °F 76% 29.88 in 10.0 mi SSE 9.2 mph - N/A   Clear
1:15 AM 80.8 °F 85.1 °F 72.3 °F 75% 29.88 in 10.0 mi SSE 9.2 mph 16.1 mph N/A   Clear
1:35 AM 80.6 °F 84.7 °F 72.1 °F 75% 29.88 in 10.0 mi SSE 9.2 mph - N/A   Clear
1:55 AM 80.6 °F 84.7 °F 72.1 °F 75% 29.87 in 10.0 mi SSE 9.2 mph - N/A   Clear
2:15 AM 80.2 °F 84.2 °F 72.1 °F 76% 29.87 in 10.0 mi SSE 8.1 mph - N/A   Clear
2:35 AM 79.7 °F - 72.1 °F 78% 29.86 in 10.0 mi SE 6.9 mph - N/A   Clear
2:55 AM 79.3 °F - 72.1 °F 79% 29.86 in 10.0 mi SSE 8.1 mph - N/A   Clear
3:15 AM 79.2 °F - 72.5 °F 80% 29.86 in 10.0 mi SSE 6.9 mph - N/A   Clear
3:35 AM 79.0 °F - 72.5 °F 80% 29.85 in 10.0 mi SSE 6.9 mph - N/A   Clear
3:55 AM 78.8 °F - 72.5 °F 81% 29.84 in 10.0 mi SSE 8.1 mph - N/A   Clear
4:15 AM 78.8 °F - 72.5 °F 81% 29.84 in 10.0 mi SSE 5.8 mph - N/A   Clear
4:35 AM 78.8 °F - 72.5 °F 81% 29.84 in 10.0 mi SSE 6.9 mph - N/A   Clear
4:55 AM 78.8 °F - 72.5 °F 81% 29.84 in 10.0 mi SSE 6.9 mph - N/A   Scattered Clouds
5:15 AM 78.8 °F - 72.1 °F 80% 29.84 in 10.0 mi SSE 6.9 mph - N/A   Scattered Clouds
5:35 AM 78.4 °F - 72.0 °F 80% 29.84 in 10.0 mi SE 5.8 mph - N/A   Clear
5:55 AM 77.9 °F - 72.0 °F 82% 29.85 in 10.0 mi SE 6.9 mph - N/A   Clear
6:15 AM 77.9 °F - 72.0 °F 82% 29.85 in 10.0 mi SSE 6.9 mph - N/A   Clear
6:35 AM 77.9 °F - 71.8 °F 81% 29.85 in 10.0 mi SE 5.8 mph - N/A   Clear
6:55 AM 77.5 °F - 72.0 °F 83% 29.85 in 10.0 mi SE 5.8 mph - N/A   Clear
7:15 AM 77.9 °F - 72.0 °F 82% 29.85 in 10.0 mi SE 5.8 mph - N/A   Scattered Clouds
7:35 AM 78.6 °F - 72.5 °F 81% 29.86 in 10.0 mi SSE 6.9 mph - N/A   Clear
7:55 AM 79.3 °F - 72.5 °F 79% 29.86 in 10.0 mi SSE 5.8 mph - N/A   Clear
8:15 AM 80.2 °F 84.3 °F 72.5 °F 77% 29.87 in 10.0 mi SSE 8.1 mph - N/A   Clear
8:35 AM 81.3 °F 86.1 °F 72.9 °F 75% 29.87 in 10.0 mi SE 5.8 mph - N/A   Scattered Clouds
8:55 AM 84.2 °F 90.9 °F 73.4 °F 70% 29.87 in 10.0 mi SSE 9.2 mph - N/A   Clear
9:15 AM 84.4 °F 90.6 °F 72.7 °F 68% 29.88 in 10.0 mi SSE 12.7 mph 16.1 mph N/A   Scattered Clouds
9:35 AM 84.4 °F 90.3 °F 72.5 °F 67% 29.88 in 10.0 mi SSE 11.5 mph 17.3 mph N/A   Scattered Clouds
9:55 AM 85.5 °F 91.8 °F 72.3 °F 65% 29.88 in 10.0 mi SSE 11.5 mph - N/A   Mostly Cloudy
10:15 AM 86.4 °F 91.8 °F 71.1 °F 60% 29.88 in 10.0 mi SSE 16.1 mph 21.9 mph N/A   Mostly Cloudy
10:35 AM 86.4 °F 91.4 °F 70.5 °F 59% 29.88 in 10.0 mi SSE 15.0 mph 21.9 mph N/A   Mostly Cloudy
10:55 AM 90.9 °F 95.8 °F 69.3 °F 49% 29.89 in 10.0 mi SSE 15.0 mph - N/A   Scattered Clouds
11:15 AM 91.4 °F 95.4 °F 67.8 °F 46% 29.89 in 10.0 mi SSE 17.3 mph 23.0 mph N/A   Scattered Clouds
11:35 AM 90.1 °F 94.9 °F 69.1 °F 50% 29.89 in 10.0 mi SSE 18.4 mph - N/A   Scattered Clouds
11:55 AM 90.9 °F 95.8 °F 69.3 °F 49% 29.89 in 10.0 mi SE 15.0 mph 20.7 mph N/A   Scattered Clouds
12:15 PM 93.2 °F 97.2 °F 67.6 °F 43% 29.88 in 10.0 mi SSE 15.0 mph 24.2 mph N/A   Scattered Clouds
12:35 PM 94.1 °F 97.3 °F 66.6 °F 40% 29.88 in 10.0 mi SSE 11.5 mph 21.9 mph N/A   Scattered Clouds
12:55 PM 95.4 °F 98.1 °F 65.5 °F 37% 29.88 in 10.0 mi SE 11.5 mph 18.4 mph N/A   Scattered Clouds
1:15 PM 95.5 °F 97.4 °F 63.9 °F 35% 29.88 in 10.0 mi SSE 15.0 mph 21.9 mph N/A   Scattered Clouds
1:35 PM 95.0 °F 96.5 °F 63.1 °F 35% 29.87 in 10.0 mi SE 13.8 mph 21.9 mph N/A   Scattered Clouds
1:55 PM 96.4 °F 97.4 °F 62.4 °F 32% 29.86 in 10.0 mi SE 10.4 mph 24.2 mph N/A   Scattered Clouds
2:15 PM 97.7 °F 99.0 °F 62.2 °F 31% 29.85 in 10.0 mi SE 13.8 mph 23.0 mph N/A   Clear
2:35 PM 96.1 °F 97.3 °F 62.2 °F 33% 29.85 in 10.0 mi SE 15.0 mph 18.4 mph N/A   Scattered Clouds
2:55 PM 97.9 °F 98.8 °F 61.7 °F 30% 29.84 in 10.0 mi SSE 12.7 mph 23.0 mph N/A   Scattered Clouds
3:15 PM 97.0 °F 98.3 °F 62.6 °F 32% 29.84 in 10.0 mi SE 13.8 mph 23.0 mph N/A   Mostly Cloudy
3:35 PM 96.1 °F 97.3 °F 62.4 °F 33% 29.83 in 10.0 mi SSE 10.4 mph 25.3 mph N/A   Mostly Cloudy
3:55 PM 96.1 °F 97.8 °F 63.9 °F 34% 29.83 in 10.0 mi SE 13.8 mph 21.9 mph N/A   Mostly Cloudy
4:15 PM 94.1 °F 95.9 °F 64.0 °F 37% 29.83 in 10.0 mi SE 15.0 mph 27.6 mph N/A   Scattered Clouds
4:35 PM 94.8 °F 98.1 °F 66.0 °F 39% 29.83 in 10.0 mi SE 15.0 mph 21.9 mph N/A   Mostly Cloudy
4:55 PM 93.4 °F 96.6 °F 66.2 °F 41% 29.83 in 10.0 mi ESE 15.0 mph 21.9 mph N/A   Scattered Clouds
5:15 PM 92.8 °F 96.1 °F 66.4 °F 42% 29.83 in 10.0 mi SE 15.0 mph 23.0 mph N/A   Scattered Clouds
5:35 PM 92.1 °F 94.4 °F 65.3 °F 41% 29.83 in 10.0 mi SE 15.0 mph 23.0 mph N/A   Scattered Clouds
5:55 PM 91.8 °F 93.8 °F 64.9 °F 41% 29.83 in 10.0 mi SSE 13.8 mph 20.7 mph N/A   Scattered Clouds
6:15 PM 90.7 °F 93.2 °F 66.0 °F 44% 29.84 in 10.0 mi ESE 16.1 mph 20.7 mph N/A   Scattered Clouds
6:35 PM 90.3 °F 92.6 °F 65.8 °F 44% 29.84 in 10.0 mi ESE 13.8 mph 23.0 mph N/A   Clear
6:55 PM 89.8 °F 92.9 °F 66.9 °F 47% 29.84 in 10.0 mi ESE 12.7 mph 21.9 mph N/A   Clear
7:15 PM 88.2 °F 91.7 °F 68.0 °F 51% 29.85 in 10.0 mi ESE 15.0 mph 24.2 mph N/A   Clear
7:35 PM 87.8 °F 90.7 °F 67.1 °F 50% 29.86 in 10.0 mi ESE 10.4 mph 23.0 mph N/A   Clear
7:55 PM 87.3 °F 90.2 °F 67.1 °F 51% 29.87 in 10.0 mi ESE 13.8 mph 21.9 mph N/A   Clear
8:15 PM 86.5 °F 90.0 °F 68.0 °F 54% 29.88 in 10.0 mi SE 8.1 mph 21.9 mph N/A   Clear
8:35 PM 85.8 °F 89.7 °F 68.9 °F 57% 29.89 in 10.0 mi ESE 12.7 mph 17.3 mph N/A   Clear
8:55 PM 85.1 °F 88.5 °F 68.5 °F 57% 29.90 in 10.0 mi ESE 11.5 mph 18.4 mph N/A   Clear
9:15 PM 84.4 °F 87.9 °F 68.5 °F 59% 29.90 in 10.0 mi ESE 9.2 mph 16.1 mph N/A   Clear
9:35 PM 84.0 °F 87.6 °F 68.9 °F 60% 29.91 in 10.0 mi ESE 6.9 mph - N/A   Clear
9:55 PM 83.3 °F 87.4 °F 70.0 °F 64% 29.92 in 10.0 mi ESE 9.2 mph 17.3 mph N/A   Clear
10:15 PM 82.9 °F 87.5 °F 70.9 °F 67% 29.92 in 10.0 mi ESE 8.1 mph - N/A   Clear
10:35 PM 82.4 °F 87.2 °F 71.6 °F 70% 29.93 in 10.0 mi ESE 9.2 mph - N/A   Clear
10:55 PM 82.2 °F 87.1 °F 72.1 °F 71% 29.93 in 10.0 mi ESE 8.1 mph - N/A   Clear
11:15 PM 81.9 °F 86.8 °F 72.3 °F 73% 29.93 in 10.0 mi ESE 8.1 mph - N/A   Clear
11:35 PM 81.5 °F 86.3 °F 72.5 °F 74% 29.94 in 10.0 mi ESE 5.8 mph - N/A   Clear
11:55 PM 81.5 °F 86.3 °F 72.7 °F 74% 29.94 in 10.0 mi ESE 5.8 mph - N/A   Clear